Location: Proctor
(47.8934°N, 114.3048°W)
Time: 17:39:31
(UTC+00:00)

Transit 4A - Pass Details

Date: 18 May 2025
Orbit: 866 x 975 km, 66.8° (Epoch: 13 June)

Event Time Altitude Azimuth Distance (km) Brightness Sun altitude
Rises 07:49:03 0° 317° (NW) 3,627 11.6 -22.4°
Reaches altitude 10° 07:53:01 10° 341° (NNW) 2,657 11.2 -22.3°
Maximum altitude 07:56:17 15° 14° (NNE) 2,323 11.0 -22.3°
Drops below altitude 10° 07:59:30 10° 46° (NE) 2,614 10.9 -22.2°
Sets 08:03:20 0° 70° (ENE) 3,529 11.3 -22.1°
